FALCON 9 DEB (44977 NORAD) Tracking and Keplerian Element Data

This shows tracking and keplerian element data for the satellite.

Feedback or suggestion? Click here.




ElementValue
Catalog44977
NameFALCON 9 DEB
Epoch Orbit733
Epoch Day52.76654653
Epoch Year2020
RAAN160.4418
Inclination52.9907
Eccentricity0.0004017
Argument of Perigee28.1134
Mean Anonmoly332.0117
Mean Motion16.14777473
Decay Rate0.0034441
L11 44977U 20001BR 20052.76654653 .00344410 74749-4 25812-3 0 9997
L22 44977 52.9907 160.4418 0004017 28.1134 332.0117 16.14777473 7337

Live tracking and technical data element details for FALCON 9 DEB (NORAD 44977). FALCON 9 DEB can be tracked NOW for your location showing map with azimuth and elevation plus other details from your city location.

Track the satellite on the map from your city or location and see movement details for azimuth, elevation, latitude, longitude, range, height, and movement on the map or in text.







IsCatalogInMostPopularTable: catalog: 44977, numindb: 12
Update: records affected: 1



GetName: 44977 FALCON 9 DEB

Hit Count: updated at: Mon, 24 Feb 2020 17:17:13 GMT